STARLINK-4810 (53869 NORAD) Tracking and Keplerian Element Data

This shows tracking and keplerian element data for the satellite.

Feedback or suggestion? Click here.




ElementValue
Catalog53869
NameSTARLINK-4810
Epoch Orbit1053
Epoch Day325.33334491
Epoch Year2022
RAAN305.5431
Inclination53.2154
Eccentricity0.000423
Argument of Perigee2.8537
Mean Anonmoly71.99
Mean Motion15.73192911
Decay Rate0.00045819
L11 53869U 22114BD 22325.33334491 .00045819 00000+0 32908-3 0 9996
L22 53869 53.2154 305.5431 0004230 2.8537 71.9900 15.73192911 10532



Live tracking and technical data element details for STARLINK-4810 (NORAD 53869). STARLINK-4810 can be tracked NOW for your location showing map with azimuth and elevation plus other details from your city location.







IsCatalogInMostPopularTable: catalog: 53869, numindb: -1

Insert: records affected: 1


GetName: 53869 STARLINK-4810

Hit Count: inserted at: Thu, 08 Dec 2022 09:42:40 GMT